AO-07
1 07530U 74089B 25303.00820066 -.00000033 00000-0 84074-4 0 9992
2 07530 101.9983 308.8120 0012043 209.5646 222.5522 12.53692818331677


Ligne 0
Le nom commun de l'objetAO-07
Ligne 1
Numéro de catalogue satellite07530U
Désignateur international74089B
Année de lancement74
Numéro de lancement dans l'année089
Object du lancementB
Époque (année)25
Époque (Jour de l'année en UTC)303.00820066
1ère dérivée du mouvement moyen-.00000033
2ème dérivée du mouvement moyen 00000-0
B * Terme de glissement 84074-4
Type de jeu d'éléments0
Numéro d'élément 999
Ligne 2
Numéro de catalogue satellite07530
Inclinaison de l'orbite (degrés)101.9983
Ascension droite du nœud ascendant (degrés)308.8120
Excentricité0012043
Argument du Périgée (degrés)209.5646
Anomalie moyenne (degrés)222.5522
Mouvement moyen (révolutions / jour)12.53692818
Numéro de révolution à l'époque33167
Valeurs déduites
Période Orbitale (en minutes)114.9 min.
Demi-grand axe (en kilomètres)7827.2 Km
Altitude à l‘Apogée (en kilomètres)1465.7 Km
Altitude au Périgée (en kilomètres)1446.8 Km

* Sources des TLE's : Celestrack